Location: Bazugues
(43.4465°N, 0.3432°E)
Time: 20:27:46
(UTC+00:00)

Cosmos 1959 Rocket - Pass Details

Date: 12 January 2026
Orbit: 947 x 996 km, 83.0° (Epoch: 13 February)

Event Time Altitude Azimuth Distance (km) Brightness Sun altitude
Rises 18:15:54 0° 351° (N) 3,627 7.4 -16.2°
Reaches altitude 10° 18:18:23 10° 352° (N) 2,679 6.7 -16.6°
Maximum altitude 18:24:31 88° 264° (W) 958 4.4 -17.7°
Drops below altitude 10° 18:30:39 10° 175° (S) 2,680 6.9 -18.8°
Sets 18:33:09 0° 175° (S) 3,629 7.6 -19.2°
